Lubbock, TX

5:17 AM CST on December 13, 2017 (GMT -0600)
Lubbock International

Weather History for KLBB - December, 2012

Change the Weather History Date:

Saturday, December 29, 2012

  Actual Average Record
Temperature  
Mean Temperature 31 °F 39 °F  
Max Temperature 47 °F 53 °F 77 °F (1920)
Min Temperature 15 °F 26 °F -1 °F (1939)
Degree Days  
Heating Degree Days 34 26  
Month to date heating degree days 622 706  
Since 1 July heating degree days 1143 1348  
Cooling Degree Days 0 0  
Month to date cooling degree days 0 0  
Year to date cooling degree days 2322 1804  
Moisture  
Dew Point 14 °F    
Average Humidity 57    
Maximum Humidity 88    
Minimum Humidity 25    
Precipitation  
Precipitation 0.00 in 0.02 in 0.74 in (2006)
Month to date precipitation 0.17 0.72  
Year to date precipitation 10.92 19.08  
Snow  
Snow 0.00 in 0.00 in 2.10 in (1969)
Month to date snowfall 0.3 2.1  
Since 1 July snowfall 0.3 3.0  
Snow Depth 0.00 in    
Sea Level Pressure  
Sea Level Pressure 30.32 in    
Wind  
Wind Speed 8 mph (SW)    
Max Wind Speed 15 mph    
Max Gust Speed 18 mph    
Visibility 10 miles    
Events      
T = Trace of Precipitation, MM = Missing Value Source: NWS Daily Summary

Daily Weather History Graph

Daily Weather History Graph

Search for Another Location

Airport or City:

Trip Planner

Search our weather history database for the weather conditions in past years. The results will help you decide how hot, cold, wet, or windy it might be!

Date:

Astronomy

Dec. 29, 2012 Rise Set
Actual Time 7:51 AM CST 5:48 PM CST
Civil Twilight 7:23 AM CST 6:15 PM CST
Nautical Twilight 6:52 AM CST 6:46 PM CST
Astronomical Twilight 6:22 AM CST 7:17 PM CST
Moon 7:17 PM CST (12/29) 8:30 AM CST (12/29)
Length of Visible Light 10h 51m
Length of Day
9h 56m
Full, 98% of the Moon is Illuminated
Dec 29
Full
Jan 4
Last Quarter
Jan 11
New
Jan 18
First Quarter
Jan 26
Full

Hourly Weather History & Observations

Time (CST) Temp. Windchill Dew Point Humidity Pressure Visibility Wind Dir Wind Speed Gust Speed Precip Events Conditions
12:53 AM 21.9 °F 13.4 °F 16.0 °F 78% 30.23 in 9.0 mi North 6.9 mph - N/A   Clear
1:53 AM 19.0 °F 7.5 °F 14.0 °F 81% 30.25 in 9.0 mi North 10.4 mph - N/A   Clear
2:53 AM 19.0 °F 10.0 °F 14.0 °F 81% 30.28 in 9.0 mi SW 6.9 mph - N/A   Clear
3:53 AM 19.0 °F 11.1 °F 15.1 °F 85% 30.30 in 8.0 mi WNW 5.8 mph - N/A   Clear
4:53 AM 19.0 °F 9.0 °F 15.1 °F 85% 30.31 in 8.0 mi NW 8.1 mph - N/A   Clear
5:53 AM 17.6 °F 8.2 °F 12.2 °F 79% 30.27 in 9.0 mi NW 6.9 mph - N/A   Partly Cloudy
6:53 AM 17.1 °F 6.6 °F 12.9 °F 84% 30.37 in 9.0 mi NNW 8.1 mph - N/A   Partly Cloudy
7:53 AM 16.0 °F 6.3 °F 12.0 °F 84% 30.39 in 9.0 mi NW 6.9 mph - N/A   Scattered Clouds
8:53 AM 21.0 °F 14.6 °F 15.1 °F 78% 30.41 in 8.0 mi WNW 4.6 mph - N/A   Mostly Cloudy
9:53 AM 28.9 °F 21.9 °F 19.0 °F 67% 30.42 in 9.0 mi West 6.9 mph - N/A   Mostly Cloudy
10:53 AM 37.9 °F 33.5 °F 21.0 °F 51% 30.40 in 10.0 mi NNW 5.8 mph - N/A   Scattered Clouds
11:53 AM 42.1 °F 40.2 °F 17.1 °F 37% 30.39 in 10.0 mi SSW 3.5 mph - N/A   Scattered Clouds
12:53 PM 45.0 °F 39.7 °F 14.0 °F 29% 30.35 in 10.0 mi South 10.4 mph 16.1 mph N/A   Scattered Clouds
1:53 PM 46.0 °F 41.9 °F 12.9 °F 26% 30.33 in 10.0 mi South 8.1 mph - N/A   Scattered Clouds
2:53 PM 46.0 °F 40.2 °F 12.9 °F 26% 30.32 in 10.0 mi SSW 12.7 mph 17.3 mph N/A   Mostly Cloudy
3:53 PM 46.0 °F 41.0 °F 12.0 °F 25% 30.31 in 10.0 mi SW 10.4 mph - N/A   Mostly Cloudy
4:53 PM 45.0 °F 39.7 °F 12.9 °F 27% 30.30 in 10.0 mi SSW 10.4 mph - N/A   Scattered Clouds
5:53 PM 42.1 °F 36.6 °F 12.9 °F 31% 30.30 in 10.0 mi South 9.2 mph - N/A   Partly Cloudy
6:53 PM 37.0 °F 29.8 °F 12.9 °F 37% 30.31 in 10.0 mi South 10.4 mph - N/A   Partly Cloudy
7:53 PM 35.1 °F 27.9 °F 12.9 °F 40% 30.35 in 10.0 mi South 9.2 mph - N/A   Clear
8:53 PM 33.1 °F 26.9 °F 12.9 °F 43% 30.34 in 10.0 mi South 6.9 mph - N/A   Partly Cloudy
9:53 PM 32.0 °F 24.2 °F 12.9 °F 45% 30.30 in 10.0 mi SSE 9.2 mph - N/A   Partly Cloudy
10:53 PM 30.9 °F 23.5 °F 12.9 °F 47% 30.30 in 10.0 mi South 8.1 mph - N/A   Partly Cloudy
11:53 PM 28.4 °F 21.2 °F 12.2 °F 51% 30.26 in 10.0 mi South 6.9 mph - N/A   Partly Cloudy